Lid_Strength_Index
5 5 4 4 3 3 3 2 2 2 2 2 1 1 1 0 0 1 0 0 0 0 0 0 -1 -1 -1 -1 -1 -1 -1 -0 -0
5 5 4 4 3 3 3 2 2 2 2 1 1 1 1 0 0 0 0 -0 -0 0 -1 -0 -1 -1 -1 -1 -1 -1 -1 -0 -0
5 5 4 4 3 3 2 2 2 1 1 1 1 1 1 1 0 0 0 -0 0 -0 -0 -1 -1 -1 -1 -1 -1 -1 -1 -0 -1
5 4 4 4 3 3 2 2 2 2 2 2 1 1 1 1 1 0 0 0 -0 -0 -0 -1 -0 -1 -0 -0 -0 -1 -0 -0 -0
4 4 4 3 3 3 3 2 2 2 2 2 1 1 1 1 0 0 0 0 -0 -0 0 -0 -0 -0 -0 -0 -0 -1 -0 0 -0
4 4 4 3 3 3 3 3 2 2 2 2 1 1 1 1 1 1 1 1 0 -0 -0 -0 -0 -0 -0 -0 -0 -0 -0 -0 0
6 4 4 4 4 3 3 3 2 2 2 1 1 1 1 1 1 1 1 0 0 0 0 0 0 -0 -0 -0 -0 -0 -0 -0 -0
5 5 4 4 4 3 3 3 3 2 2 1 1 1 2 1 1 1 0 0 0 0 0 -0 -0 0 -0 -0 -0 0 -0 -0 -0
6 5 4 4 4 3 3 3 3 2 2 2 1 2 2 1 1 1 1 1 1 0 0 0 0 0 0 0 0 2 3 0 0
6 6 5 4 3 3 3 3 2 3 2 1 2 2 2 1 1 1 1 1 1 1 1 0 0 1 0 1 0 4 4 3 0
6 5 5 4 4 3 3 2 2 2 2 2 2 2 2 1 1 1 1 1 1 1 1 1 1 1 0 0 0 5 5 4 -0
5 4 4 4 3 2 2 2 2 2 2 2 2 2 2 2 1 2 1 2 1 1 1 1 1 1 1 1 0 6 6 4 0
7 5 3 4 3 2 2 2 2 2 3 2 3 2 2 1 1 1 2 1 1 1 1 1 1 1 1 2 1 5 7 5 1
6 5 3 3 2 2 2 2 2 3 2 3 2 1 1 1 1 1 1 1 1 1 1 1 1 1 1 0 1 1 8 8 1
8 7 4 3 3 3 2 2 2 3 3 2 1 1 1 1 1 1 1 1 1 1 1 2 2 2 1 1 0 5 7 9 8
11 10 9 6 4 4 3 2 1 3 2 1 1 2 2 2 1 1 1 1 2 2 2 2 2 2 2 2 1 1 9 10 10
11 11 10 10 8 8 6 4 3 2 2 1 1 2 2 1 2 2 1 1 1 2 2 2 2 2 2 2 2 1 1 1 4
10 10 9 10 10 9 9 7 6 6 4 1 2 2 2 2 2 2 2 1 1 2 1 2 2 2 2 2 2 2 4 3 1
9 9 8 10 10 10 9 8 7 7 6 5 2 2 2 2 2 2 2 2 2 13 13 14 15 14 7 1 7 11 12 14 13
8 8 8 8 9 9 9 8 8 7 6 6 5 4 2 3 3 2 3 2 2 3 7 15 16 15 15 15 11 15 15 15 17